Weather History for Eveleth, MN

Change the Weather History Date:

Tuesday, July 30, 2013

  Actual Average Record
Temperature  
Mean Temperature 60 °F -  
Max Temperature 71 °F 76 °F 91 °F (1999)
Min Temperature 50 °F 52 °F 41 °F (1997)
Degree Days  
Heating Degree Days 4    
Growing Degree Days 10 (Base 50)    
Moisture  
Dew Point 57 °F    
Average Humidity 88    
Maximum Humidity 100    
Minimum Humidity 68    
Precipitation  
Precipitation 0.03 in - - ()
Sea Level Pressure  
Sea Level Pressure 30.08 in    
Wind  
Wind Speed 2 mph (SSW)    
Max Wind Speed 10 mph    
Max Gust Speed -    
Visibility 10 miles    
Events Rain    
Averages and records for this station are not official NWS values.
T = Trace of Precipitation, MM = Missing Value Source: NWS Daily Summary

Daily Weather History Graph

Daily Weather History Graph

Search for Another Location

Airport:

Trip Planner

Search our weather history database for the weather conditions in past years. The results will help you decide how hot, cold, wet, or windy it might be!

Date:

Astronomy

Jul. 30, 2013 Rise Set
Actual Time 5:45 AM CDT 8:46 PM CDT
Civil Twilight 5:09 AM CDT 9:22 PM CDT
Nautical Twilight 4:23 AM CDT 10:08 PM CDT
Astronomical Twilight 3:26 AM CDT 11:04 PM CDT
Moon 12:07 AM CDT (7/30) 3:05 PM CDT (7/30)
Length of Visible Light 16h 12m
Length of Day
15h 00m
Last Quarter, 41% of the Moon is Illuminated
Jul 30
Last Quarter
Aug 6
New
Aug 14
First Quarter
Aug 20
Full
Aug 28
Last Quarter

Hourly Weather History & Observations

Time (CDT) Temp. Dew Point Humidity Pressure Visibility Wind Dir Wind Speed Gust Speed Precip Events Conditions
12:08 AM 51.8 °F 50.0 °F 94% 30.11 in 10.0 mi Calm Calm - N/A   Clear
12:28 AM 51.8 °F 51.8 °F 100% 30.10 in 7.0 mi Calm Calm - N/A   Clear
12:48 AM 51.8 °F 51.8 °F 100% 30.10 in 10.0 mi Calm Calm - N/A   Clear
1:08 AM 51.8 °F 51.8 °F 100% 30.10 in 7.0 mi Calm Calm - N/A   Clear
1:28 AM 50.0 °F 50.0 °F 100% 30.10 in 2.0 mi Calm Calm - N/A   Clear
1:48 AM 50.0 °F 48.2 °F 94% 30.10 in 10.0 mi Calm Calm - N/A   Scattered Clouds
2:08 AM 50.0 °F 50.0 °F 100% 30.10 in 10.0 mi Calm Calm - N/A   Overcast
2:28 AM 51.8 °F 51.8 °F 100% 30.10 in 10.0 mi Calm Calm - N/A   Overcast
2:48 AM 51.8 °F 51.8 °F 100% 30.09 in 10.0 mi Calm Calm - N/A   Mostly Cloudy
3:08 AM 51.8 °F 51.8 °F 100% 30.09 in 10.0 mi Calm Calm - N/A   Mostly Cloudy
3:28 AM 51.8 °F 51.8 °F 100% 30.09 in 10.0 mi Calm Calm - N/A   Overcast
3:48 AM 51.8 °F 51.8 °F 100% 30.09 in 10.0 mi Calm Calm - N/A   Overcast
4:08 AM 51.8 °F 51.8 °F 100% 30.09 in 10.0 mi Calm Calm - N/A   Overcast
4:28 AM 51.8 °F 51.8 °F 100% 30.10 in 10.0 mi Calm Calm - N/A   Overcast
4:48 AM 53.6 °F 51.8 °F 94% 30.09 in 10.0 mi Calm Calm - N/A   Overcast
5:08 AM 53.6 °F 51.8 °F 94% 30.10 in 10.0 mi Calm Calm - N/A Rain Light Rain
5:28 AM 53.6 °F 51.8 °F 94% 30.10 in 10.0 mi Calm Calm - N/A Rain Rain
5:48 AM 53.6 °F 51.8 °F 94% 30.11 in 5.0 mi Calm Calm - 0.03 in Rain Rain
6:08 AM 55.4 °F 53.6 °F 94% 30.11 in 10.0 mi Calm Calm - N/A   Overcast
6:28 AM 55.4 °F 55.4 °F 100% 30.11 in 10.0 mi Calm Calm - N/A   Overcast
6:48 AM 55.4 °F 53.6 °F 94% 30.11 in 10.0 mi Calm Calm - N/A   Overcast
7:08 AM 57.2 °F 55.4 °F 94% 30.11 in 10.0 mi Calm Calm - N/A   Overcast
7:28 AM 57.2 °F 55.4 °F 94% 30.11 in 10.0 mi Calm Calm - N/A   Overcast
7:48 AM 57.2 °F 55.4 °F 94% 30.11 in 10.0 mi Calm Calm - N/A   Overcast
8:08 AM 57.2 °F 55.4 °F 94% 30.11 in 10.0 mi Calm Calm - N/A   Overcast
8:28 AM 57.2 °F 55.4 °F 94% 30.11 in 10.0 mi Calm Calm - N/A   Overcast
8:48 AM 59.0 °F 59.0 °F 100% 30.11 in 10.0 mi Calm Calm - N/A   Overcast
9:08 AM 59.0 °F 57.2 °F 94% 30.11 in 10.0 mi South 3.5 mph - N/A   Overcast
9:28 AM 59.0 °F 57.2 °F 94% 30.10 in 10.0 mi Calm Calm - N/A   Overcast
9:48 AM 60.8 °F 57.2 °F 88% 30.10 in 10.0 mi South 5.8 mph - N/A   Overcast
10:08 AM 62.6 °F 59.0 °F 88% 30.10 in 10.0 mi South 6.9 mph - N/A   Overcast
10:28 AM 62.6 °F 59.0 °F 88% 30.10 in 10.0 mi SSW 6.9 mph - N/A   Overcast
10:48 AM 62.6 °F 59.0 °F 88% 30.10 in 10.0 mi SSW 6.9 mph - N/A   Overcast
11:08 AM 60.8 °F 57.2 °F 88% 30.10 in 10.0 mi SSW 6.9 mph - N/A   Overcast
11:28 AM 62.6 °F 59.0 °F 88% 30.10 in 10.0 mi SSW 9.2 mph - N/A   Overcast
11:48 AM 62.6 °F 59.0 °F 88% 30.10 in 10.0 mi SSW 6.9 mph - N/A   Overcast
12:08 PM 62.6 °F 59.0 °F 88% 30.09 in 10.0 mi SSW 6.9 mph - N/A   Overcast
12:28 PM 64.4 °F 59.0 °F 83% 30.08 in 10.0 mi SSW 6.9 mph - N/A   Overcast
12:48 PM 64.4 °F 59.0 °F 83% 30.09 in 10.0 mi SSW 8.1 mph - N/A   Overcast
1:08 PM 62.6 °F 57.2 °F 82% 30.09 in 10.0 mi WSW 8.1 mph - N/A   Overcast
1:28 PM 62.6 °F 59.0 °F 88% 30.08 in 10.0 mi SSW 6.9 mph - N/A   Overcast
1:48 PM 64.4 °F 59.0 °F 83% 30.08 in 10.0 mi SW 8.1 mph - N/A   Overcast
2:08 PM 64.4 °F 59.0 °F 83% 30.08 in 10.0 mi SSW 10.4 mph - N/A   Overcast
2:28 PM 64.4 °F 59.0 °F 83% 30.08 in 10.0 mi SSW 8.1 mph - N/A   Overcast
2:48 PM 66.2 °F 59.0 °F 78% 30.07 in 10.0 mi SSW 6.9 mph - N/A   Overcast
3:08 PM 68.0 °F 59.0 °F 73% 30.07 in 10.0 mi SW 9.2 mph - N/A   Overcast
3:28 PM 69.8 °F 60.8 °F 73% 30.06 in 10.0 mi SW 6.9 mph - N/A   Overcast
3:48 PM 71.6 °F 60.8 °F 69% 30.06 in 10.0 mi SW 9.2 mph - N/A   Overcast
4:08 PM 69.8 °F 59.0 °F 68% 30.06 in 10.0 mi SW 6.9 mph - N/A   Mostly Cloudy
4:28 PM 69.8 °F 60.8 °F 73% 30.05 in 10.0 mi South 5.8 mph - N/A   Mostly Cloudy
4:48 PM 69.8 °F 60.8 °F 73% 30.06 in 10.0 mi SSW 5.8 mph - N/A   Overcast
5:08 PM 71.6 °F 60.8 °F 69% 30.05 in 10.0 mi SW 9.2 mph - N/A   Mostly Cloudy
5:28 PM 71.6 °F 60.8 °F 69% 30.06 in 10.0 mi SW 9.2 mph - N/A   Mostly Cloudy
5:48 PM 71.6 °F 60.8 °F 69% 30.05 in 10.0 mi SW 6.9 mph - N/A   Scattered Clouds
6:08 PM 71.6 °F 60.8 °F 69% 30.04 in 10.0 mi SSW 6.9 mph - N/A   Scattered Clouds
6:28 PM 71.6 °F 60.8 °F 69% 30.04 in 10.0 mi SSW 8.1 mph - N/A   Scattered Clouds
6:48 PM 71.6 °F 60.8 °F 69% 30.04 in 10.0 mi SW 8.1 mph - N/A   Clear
7:08 PM 68.0 °F 59.0 °F 73% 30.04 in 10.0 mi SW 5.8 mph - N/A   Clear
7:28 PM 68.0 °F 59.0 °F 73% 30.04 in 10.0 mi SSW 4.6 mph - N/A   Clear
7:48 PM 68.0 °F 60.8 °F 78% 30.04 in 10.0 mi SSW 4.6 mph - N/A   Mostly Cloudy
8:08 PM 64.4 °F 59.0 °F 83% 30.04 in 10.0 mi SSW 4.6 mph - N/A   Scattered Clouds
8:28 PM 64.4 °F 60.8 °F 88% 30.04 in 10.0 mi SSW 4.6 mph - N/A   Scattered Clouds
8:48 PM 64.4 °F 60.8 °F 88% 30.05 in 10.0 mi SSW 3.5 mph - N/A   Scattered Clouds
9:08 PM 64.4 °F 60.8 °F 88% 30.05 in 10.0 mi SSW 5.8 mph - N/A   Clear
9:28 PM 64.4 °F 60.8 °F 88% 30.05 in 10.0 mi SSW 4.6 mph - N/A   Scattered Clouds
9:49 PM 64.4 °F 59.0 °F 83% 30.05 in 10.0 mi SW 3.5 mph - N/A   Scattered Clouds
10:08 PM 62.6 °F 59.0 °F 88% 30.05 in 10.0 mi Calm Calm - N/A   Scattered Clouds
10:28 PM 62.6 °F 60.8 °F 94% 30.05 in 10.0 mi SW 3.5 mph - N/A   Clear
10:48 PM 62.6 °F 59.0 °F 88% 30.05 in 10.0 mi SW 4.6 mph - N/A   Clear
11:08 PM 62.6 °F 60.8 °F 94% 30.05 in 10.0 mi SW 3.5 mph - N/A   Mostly Cloudy
11:28 PM 62.6 °F 60.8 °F 94% 30.05 in 10.0 mi SW 4.6 mph - N/A   Scattered Clouds
11:48 PM 62.6 °F 59.0 °F 88% 30.05 in 10.0 mi SW 5.8 mph - N/A   Clear